TimeEDT,TemperatureF,Dew PointF,Humidity,Sea Level PressureIn,VisibilityMPH,Wind Direction,Wind SpeedMPH,Gust SpeedMPH,PrecipitationIn,Events,Conditions,WindDirDegrees,DateUTC
12:56 AM,68.0,63.0,84,29.80,10.0,North,6.9,-,N/A,,Partly Cloudy,10,2013-07-01 04:56:00
1:56 AM,68.0,64.0,87,29.81,10.0,North,5.8,-,N/A,,Partly Cloudy,360,2013-07-01 05:56:00
2:56 AM,66.9,64.9,93,29.79,9.0,North,3.5,-,N/A,,Mostly Cloudy,10,2013-07-01 06:56:00
3:56 AM,66.9,64.0,90,29.79,9.0,North,3.5,-,N/A,,Mostly Cloudy,10,2013-07-01 07:56:00
4:56 AM,66.9,64.9,93,29.79,9.0,NNE,4.6,-,N/A,,Overcast,30,2013-07-01 08:56:00
5:56 AM,66.9,64.9,93,29.81,8.0,NNE,6.9,-,N/A,,Mostly Cloudy,20,2013-07-01 09:56:00
6:56 AM,68.0,64.9,90,29.81,7.0,NNE,3.5,-,N/A,,Overcast,20,2013-07-01 10:56:00
7:56 AM,68.0,64.9,90,29.83,8.0,NNW,3.5,-,N/A,,Overcast,340,2013-07-01 11:56:00
8:19 AM,68.0,64.4,88,29.86,7.0,SW,8.1,-,N/A,,Overcast,230,2013-07-01 12:19:00
8:26 AM,68.0,62.6,83,29.86,8.0,West,10.4,-,0.00,Rain-Thunderstorm,Light Thunderstorms and Rain,260,2013-07-01 12:26:00
8:47 AM,66.2,60.8,83,29.86,10.0,West,5.8,-,0.00,,Overcast,270,2013-07-01 12:47:00
8:56 AM,66.0,60.1,81,29.86,6.0,WNW,3.5,-,0.01,Rain-Thunderstorm,Light Thunderstorms and Rain,290,2013-07-01 12:56:00
8:58 AM,66.2,60.8,83,29.87,2.0,Calm,Calm,-,0.00,Rain-Thunderstorm,Light Thunderstorms and Rain,0,2013-07-01 12:58:00
9:02 AM,66.2,60.8,83,29.87,1.5,Variable,4.6,-,0.01,Rain-Thunderstorm,Heavy Thunderstorms and Rain,0,2013-07-01 13:02:00
9:07 AM,64.4,60.8,88,29.87,0.5,West,9.2,-,0.20,Fog-Rain-Thunderstorm,Heavy Thunderstorms and Rain,280,2013-07-01 13:07:00
9:19 AM,64.4,60.8,88,29.86,2.5,West,8.1,-,0.38,Rain-Thunderstorm,Thunderstorms and Rain,280,2013-07-01 13:19:00
9:22 AM,64.4,60.8,88,29.87,4.0,West,6.9,-,0.38,Rain-Thunderstorm,Light Thunderstorms and Rain,280,2013-07-01 13:22:00
9:27 AM,64.4,62.6,94,29.86,8.0,Calm,Calm,-,0.38,Rain,Light Rain,0,2013-07-01 13:27:00
9:56 AM,66.0,62.1,87,29.86,10.0,NNW,4.6,-,0.38,Rain,Light Rain,330,2013-07-01 13:56:00
10:56 AM,68.0,63.0,84,29.88,10.0,SSW,4.6,-,0.01,,Overcast,200,2013-07-01 14:56:00
11:09 AM,68.0,62.6,83,29.89,10.0,Calm,Calm,-,N/A,,Overcast,0,2013-07-01 15:09:00
11:31 AM,71.6,64.4,78,29.88,10.0,NE,4.6,-,N/A,,Overcast,40,2013-07-01 15:31:00
11:56 AM,71.1,64.0,78,29.87,10.0,NE,5.8,-,0.00,Rain,Light Rain,50,2013-07-01 15:56:00
12:56 PM,73.9,64.9,73,29.85,10.0,Variable,3.5,-,0.00,,Mostly Cloudy,0,2013-07-01 16:56:00
1:39 PM,78.8,66.2,65,29.86,10.0,Calm,Calm,-,N/A,,Mostly Cloudy,0,2013-07-01 17:39:00
1:56 PM,77.0,64.9,66,29.84,10.0,SSW,3.5,-,N/A,,Mostly Cloudy,210,2013-07-01 17:56:00
2:56 PM,80.1,64.9,60,29.82,10.0,North,6.9,-,N/A,,Mostly Cloudy,10,2013-07-01 18:56:00
3:56 PM,81.0,63.0,54,29.82,10.0,North,3.5,-,N/A,,Mostly Cloudy,10,2013-07-01 19:56:00
4:56 PM,80.1,61.0,52,29.82,10.0,Calm,Calm,-,N/A,,Mostly Cloudy,0,2013-07-01 20:56:00
5:56 PM,78.1,63.0,60,29.82,10.0,SSW,6.9,-,0.00,Rain,Light Rain,210,2013-07-01 21:56:00
6:09 PM,75.2,64.4,69,29.85,10.0,NNE,10.4,17.3,0.00,Thunderstorm,Thunderstorm,20,2013-07-01 22:09:00
6:37 PM,73.4,64.4,73,29.84,10.0,North,15.0,24.2,0.00,,Overcast,10,2013-07-01 22:37:00
6:56 PM,72.0,64.9,78,29.85,10.0,North,10.4,-,0.00,Rain,Light Rain,10,2013-07-01 22:56:00
7:09 PM,71.6,64.4,78,29.86,2.0,North,11.5,-,0.05,Rain,Rain,360,2013-07-01 23:09:00
7:20 PM,69.8,64.4,83,29.86,7.0,NNW,5.8,-,0.17,Rain,Light Rain,340,2013-07-01 23:20:00
7:35 PM,69.8,64.4,83,29.87,10.0,NNE,5.8,-,0.17,Thunderstorm,Thunderstorm,20,2013-07-01 23:35:00
7:56 PM,70.0,64.9,84,29.86,10.0,North,4.6,-,0.17,,Mostly Cloudy,350,2013-07-01 23:56:00
8:56 PM,69.1,66.0,90,29.88,10.0,NNE,3.5,-,0.01,,Mostly Cloudy,30,2013-07-02 00:56:00
9:56 PM,68.0,64.9,90,29.89,10.0,NE,4.6,-,N/A,,Mostly Cloudy,40,2013-07-02 01:56:00
10:56 PM,66.9,64.0,90,29.89,10.0,ESE,4.6,-,N/A,,Mostly Cloudy,120,2013-07-02 02:56:00
11:56 PM,66.9,63.0,87,29.90,10.0,Calm,Calm,-,N/A,,Mostly Cloudy,0,2013-07-02 03:56:00